Hourly Weather Barkowo

Today, 24 July, Saturday

Time Temperature Precipitation Wind Pressure Humidity
00:00 +16°C° 0 mm 2 mps 749 mmHg 87%
01:00 +16°C° 0 mm 2 mps 749 mmHg 90%
02:00 +16°C° 0 mm 2 mps 749 mmHg 89%
03:00 +16°C° 0 mm 2 mps 749 mmHg 88%
04:00 +16°C° 0 mm 2 mps 749 mmHg 88%
05:00 +17°C° 0 mm 2 mps 749 mmHg 81%
06:00 +19°C° 0 mm 2 mps 749 mmHg 75%
07:00 +20°C° 0 mm 2 mps 749 mmHg 69%
08:00 +21°C° 0 mm 2 mps 749 mmHg 62%
09:00 +24°C° 0 mm 2 mps 749 mmHg 55%
10:00 +25°C° 0 mm 2 mps 749 mmHg 48%
11:00 +26°C° 0 mm 2 mps 749 mmHg 46%
12:00 +26°C° 0 mm 2 mps 749 mmHg 44%
13:00 +27°C° 0 mm 2 mps 749 mmHg 40%
14:00 +27°C° 0 mm 2 mps 749 mmHg 41%
15:00 +26°C° 0 mm 2 mps 749 mmHg 42%
16:00 +26°C° 0 mm 3 mps 748 mmHg 44%
17:00 +25°C° 0 mm 3 mps 748 mmHg 49%
18:00 +24°C° 0 mm 3 mps 748 mmHg 55%
19:00 +22°C° 0 mm 3 mps 748 mmHg 61%
20:00 +21°C° 0 mm 3 mps 748 mmHg 66%
21:00 +20°C° 0 mm 3 mps 748 mmHg 70%
22:00 +19°C° 0 mm 3 mps 748 mmHg 74%
23:00 +19°C° 0 mm 3 mps 748 mmHg 76%

Tomorrow, 25 July, Sunday

Time Temperature Precipitation Wind Pressure Humidity
00:00 +19°C° 0 mm 3 mps 748 mmHg 77%
01:00 +18°C° 0 mm 2 mps 748 mmHg 79%
02:00 +18°C° 0 mm 2 mps 748 mmHg 78%
03:00 +18°C° 0 mm 2 mps 748 mmHg 77%
04:00 +18°C° 0 mm 3 mps 748 mmHg 76%
05:00 +19°C° 0 mm 3 mps 748 mmHg 71%
06:00 +20°C° 0 mm 3 mps 748 mmHg 67%
07:00 +21°C° 0 mm 4 mps 748 mmHg 63%
08:00 +23°C° 0 mm 4 mps 747 mmHg 58%
09:00 +26°C° 0 mm 5 mps 747 mmHg 53%
10:00 +27°C° 0 mm 5 mps 747 mmHg 48%
11:00 +28°C° 0 mm 5 mps 747 mmHg 46%
12:00 +29°C° 0 mm 5 mps 747 mmHg 43%
13:00 +30°C° 0 mm 5 mps 747 mmHg 40%
14:00 +30°C° 0 mm 4 mps 747 mmHg 42%
15:00 +29°C° 0 mm 4 mps 746 mmHg 44%
16:00 +29°C° 0 mm 3 mps 746 mmHg 46%
17:00 +27°C° 0.3 mm 3 mps 746 mmHg 56%
18:00 +25°C° 0.3 mm 3 mps 747 mmHg 66%
19:00 +22°C° 0.3 mm 3 mps 747 mmHg 76%
20:00 +21°C° 0.3 mm 2 mps 747 mmHg 80%
21:00 +20°C° 0.3 mm 2 mps 747 mmHg 85%
22:00 +20°C° 0.3 mm 1 mps 747 mmHg 89%
23:00 +19°C° 0 mm 2 mps 747 mmHg 89%

Day after tomorrow, 26 July, Monday

Time Temperature Precipitation Wind Pressure Humidity
00:00 +19°C° 0 mm 2 mps 747 mmHg 89%
01:00 +19°C° 0 mm 2 mps 747 mmHg 89%
02:00 +19°C° 0.1 mm 2 mps 747 mmHg 88%
03:00 +19°C° 0.1 mm 2 mps 746 mmHg 88%
04:00 +19°C° 0.1 mm 2 mps 746 mmHg 87%
05:00 +19°C° 0.1 mm 2 mps 746 mmHg 86%
06:00 +19°C° 0.1 mm 2 mps 746 mmHg 86%
07:00 +20°C° 0.1 mm 2 mps 747 mmHg 85%
08:00 +22°C° 0.1 mm 3 mps 747 mmHg 76%
09:00 +25°C° 0.1 mm 3 mps 747 mmHg 67%
10:00 +26°C° 0.1 mm 3 mps 747 mmHg 58%
11:00 +28°C° 0 mm 3 mps 746 mmHg 54%
12:00 +29°C° 0 mm 3 mps 746 mmHg 50%
13:00 +30°C° 0 mm 3 mps 746 mmHg 46%
14:00 +29°C° 0.2 mm 2 mps 746 mmHg 52%
15:00 +28°C° 0.2 mm 2 mps 746 mmHg 58%
16:00 +26°C° 0.2 mm 1 mps 746 mmHg 64%
17:00 +26°C° 0.1 mm 1 mps 746 mmHg 67%
18:00 +25°C° 0.1 mm 1 mps 745 mmHg 69%
19:00 +25°C° 0.1 mm 1 mps 745 mmHg 72%
20:00 +24°C° 0.1 mm 1 mps 745 mmHg 76%
21:00 +23°C° 0.1 mm 1 mps 746 mmHg 80%
22:00 +22°C° 0.1 mm 1 mps 746 mmHg 85%
23:00 +22°C° 0 mm 1 mps 746 mmHg 85%

27 July, Tuesday

Time Temperature Precipitation Wind Pressure Humidity
00:00 +21°C° 0 mm 1 mps 746 mmHg 85%
01:00 +21°C° 0 mm 1 mps 746 mmHg 85%
02:00 +21°C° 0 mm 1 mps 746 mmHg 86%
03:00 +19°C° 0 mm 2 mps 746 mmHg 87%
04:00 +19°C° 0 mm 2 mps 746 mmHg 88%
05:00 +20°C° 0 mm 2 mps 746 mmHg 83%
06:00 +23°C° 0 mm 2 mps 746 mmHg 77%
07:00 +24°C° 0 mm 2 mps 746 mmHg 72%
08:00 +25°C° 0 mm 2 mps 746 mmHg 67%
09:00 +26°C° 0 mm 3 mps 746 mmHg 62%
10:00 +27°C° 0 mm 3 mps 747 mmHg 56%
11:00 +28°C° 0 mm 3 mps 747 mmHg 52%
12:00 +29°C° 0 mm 3 mps 747 mmHg 48%
13:00 +30°C° 0 mm 3 mps 747 mmHg 44%
14:00 +29°C° 0 mm 2 mps 747 mmHg 46%
15:00 +29°C° 0 mm 2 mps 746 mmHg 48%
16:00 +29°C° 0 mm 1 mps 746 mmHg 49%
17:00 +28°C° 0 mm 2 mps 746 mmHg 54%
18:00 +26°C° 0 mm 2 mps 746 mmHg 59%
19:00 +25°C° 0 mm 2 mps 746 mmHg 64%
20:00 +24°C° 0 mm 2 mps 746 mmHg 68%
21:00 +23°C° 0 mm 2 mps 746 mmHg 72%
22:00 +21°C° 0 mm 2 mps 747 mmHg 76%
23:00 +22°C° 0.1 mm 1 mps 746 mmHg 78%

28 July, Wednesday

Time Temperature Precipitation Wind Pressure Humidity
00:00 +22°C° 0.1 mm 1 mps 746 mmHg 79%
01:00 +21°C° 0.1 mm 1 mps 746 mmHg 81%
02:00 +21°C° 0 mm 1 mps 746 mmHg 82%
03:00 +20°C° 0 mm 1 mps 746 mmHg 84%
04:00 +20°C° 0 mm 1 mps 745 mmHg 85%
05:00 +20°C° 0.1 mm 2 mps 745 mmHg 83%
06:00 +20°C° 0.1 mm 2 mps 746 mmHg 81%
07:00 +21°C° 0.1 mm 3 mps 746 mmHg 79%
08:00 +21°C° 0 mm 3 mps 746 mmHg 75%
09:00 +22°C° 0 mm 4 mps 746 mmHg 72%
10:00 +23°C° 0 mm 4 mps 746 mmHg 68%
11:00 +25°C° 0 mm 4 mps 746 mmHg 61%
12:00 +26°C° 0 mm 4 mps 746 mmHg 55%
13:00 +27°C° 0 mm 4 mps 746 mmHg 48%
14:00 +26°C° 0 mm 4 mps 746 mmHg 49%
15:00 +26°C° 0 mm 4 mps 746 mmHg 50%
16:00 +26°C° 0 mm 3 mps 746 mmHg 51%
17:00 +25°C° 0 mm 2 mps 746 mmHg 55%
18:00 +24°C° 0 mm 2 mps 746 mmHg 60%
19:00 +23°C° 0 mm 1 mps 746 mmHg 64%
20:00 +22°C° 0 mm 1 mps 746 mmHg 66%
21:00 +21°C° 0 mm 1 mps 746 mmHg 68%
22:00 +21°C° 0 mm 1 mps 747 mmHg 70%
23:00 +20°C° 0 mm 1 mps 747 mmHg 74%

29 July, Thursday

Time Temperature Precipitation Wind Pressure Humidity
00:00 +18°C° 0 mm 2 mps 747 mmHg 79%
01:00 +17°C° 0 mm 2 mps 747 mmHg 83%
02:00 +17°C° 0 mm 2 mps 747 mmHg 85%
03:00 +16°C° 0 mm 2 mps 747 mmHg 88%
04:00 +16°C° 0 mm 2 mps 747 mmHg 91%
05:00 +17°C° 0 mm 3 mps 747 mmHg 84%
06:00 +19°C° 0 mm 3 mps 747 mmHg 76%
07:00 +20°C° 0 mm 3 mps 748 mmHg 69%
08:00 +22°C° 0 mm 4 mps 748 mmHg 61%
09:00 +23°C° 0 mm 4 mps 748 mmHg 53%
10:00 +25°C° 0 mm 4 mps 748 mmHg 45%
11:00 +26°C° 0 mm 4 mps 747 mmHg 42%
12:00 +27°C° 0 mm 4 mps 747 mmHg 39%
13:00 +27°C° 0 mm 4 mps 747 mmHg 37%
14:00 +27°C° 0 mm 4 mps 747 mmHg 40%
15:00 +26°C° 0 mm 3 mps 747 mmHg 44%
16:00 +25°C° 0 mm 3 mps 747 mmHg 47%
17:00 +25°C° 0 mm 2 mps 746 mmHg 51%
18:00 +24°C° 0 mm 2 mps 746 mmHg 54%
19:00 +23°C° 0 mm 1 mps 746 mmHg 58%
20:00 +22°C° 0 mm 1 mps 746 mmHg 61%
21:00 +21°C° 0 mm 1 mps 746 mmHg 64%
22:00 +20°C° 0 mm 1 mps 746 mmHg 67%
23:00 +20°C° 0 mm 1 mps 746 mmHg 69%
Show more